Wind_Speed
25 23 22 21 20 18 18 17 17 17 17 16 15 14 13 13 12 12 12 11 11 10 10 9 9 9 9 9 10 10 11 11 10 10 10 10 10 9 9 9 9 10
25 24 23 22 21 19 19 18 17 17 16 16 15 14 14 13 13 12 12 11 11 10 10 10 10 11 10 10 10 11 11 12 11 11 11 10 10 10 10 11 11 11
26 25 24 23 22 20 19 19 18 17 16 16 16 15 15 13 12 12 11 11 11 10 11 11 11 11 10 9 10 10 10 11 11 11 11 11 11 11 11 11 13 13
28 26 26 24 22 20 19 19 18 18 17 17 16 15 14 13 12 12 11 11 11 10 10 10 9 8 7 7 7 7 7 8 9 10 11 11 11 12 12 13 14 14
29 28 27 25 23 21 20 20 19 18 17 16 15 15 14 13 12 11 11 12 11 10 9 8 7 6 5 4 4 5 5 6 7 9 11 12 12 13 13 14 15 15
30 29 28 26 23 22 21 20 19 18 16 15 15 15 14 12 11 11 13 13 11 10 9 8 8 7 6 6 6 6 6 7 7 8 10 11 12 13 14 16 17 17
31 30 29 27 24 22 22 21 18 17 15 15 15 15 14 12 11 12 14 13 11 11 10 10 10 9 8 8 9 9 9 9 10 10 11 11 11 13 15 16 17 17
33 31 29 27 25 24 23 21 18 16 16 16 16 15 14 13 12 13 14 13 12 12 11 11 11 11 11 11 12 12 12 12 12 13 13 13 13 13 14 15 16 17
34 32 31 29 26 25 24 21 18 17 16 16 15 14 14 14 13 14 14 14 14 13 13 12 12 12 12 13 14 14 14 14 14 15 15 15 15 14 13 14 16 17
35 34 33 31 28 27 25 21 18 17 16 15 14 14 15 15 15 15 15 15 15 15 14 14 14 14 14 15 15 15 16 16 16 16 17 17 17 16 14 14 15 16
36 36 35 33 30 28 25 21 18 18 16 14 14 15 15 15 16 16 16 16 16 15 14 15 15 16 16 16 16 17 17 17 17 18 17 18 18 17 16 16 16 17
40 39 37 33 30 28 24 21 19 18 16 13 13 15 16 16 16 16 16 16 15 15 15 15 16 16 17 17 17 18 18 18 18 18 18 18 18 17 17 16 17 17
43 40 35 31 28 26 24 20 19 19 16 12 12 14 16 16 14 15 16 16 16 16 16 16 16 16 17 17 18 19 19 19 18 17 17 18 17 17 17 17 17 17
41 35 29 27 26 25 24 21 21 21 17 11 11 14 17 16 14 15 17 17 17 18 17 17 17 17 18 18 19 19 19 19 18 17 17 17 17 18 18 17 17 17
33 29 25 26 27 27 25 23 22 22 18 13 11 13 17 18 17 17 19 19 19 19 18 18 18 19 19 19 19 19 19 19 18 18 18 17 18 18 17 17 16 17
31 29 28 29 29 29 27 24 24 24 21 15 13 14 18 20 20 20 21 21 21 20 19 19 19 19 19 19 19 19 19 18 18 18 18 17 17 17 16 15 15 16
34 32 32 34 33 31 30 27 26 27 24 17 15 18 22 23 22 23 22 22 21 21 21 21 20 20 19 20 20 20 19 19 18 17 17 17 17 16 16 15 16 17
39 36 34 35 36 34 31 29 28 29 26 19 18 22 26 25 24 24 24 23 22 22 22 22 22 21 21 21 21 20 20 20 19 18 18 19 18 17 17 17 17 18
39 36 31 32 38 36 30 29 31 30 27 22 22 25 27 27 27 26 25 24 23 22 22 22 23 22 22 22 22 21 20 20 20 19 20 21 20 19 19 19 20 20
34 35 32 34 39 36 31 32 34 33 28 25 25 27 29 30 29 28 28 26 24 23 22 23 23 23 24 24 22 21 20 21 21 21 21 22 22 21 21 21 21 21
32 35 36 36 40 39 35 34 35 34 30 28 28 30 31 31 30 30 28 27 25 23 23 23 24 24 25 25 23 21 21 22 22 22 22 22 22 23 23 23 22 21
32 33 34 36 42 42 38 36 35 32 30 29 30 32 32 31 31 30 28 26 25 24 24 24 25 25 25 26 25 23 22 23 24 24 24 24 23 24 24 24 23 22
31 30 30 34 40 41 38 35 31 27 28 29 30 32 33 32 31 29 27 25 25 25 26 26 26 25 25 26 25 24 24 24 24 26 27 27 26 25 25 25 24 22
28 27 28 32 37 40 38 34 29 27 28 29 29 31 33 32 31 29 26 25 25 25 25 27 28 26 26 26 25 24 25 25 26 28 29 30 29 28 28 28 24 21
28 28 30 32 36 41 41 35 28 25 26 26 26 28 31 31 30 27 26 26 26 26 25 26 28 27 26 26 25 25 26 27 28 29 30 31 31 31 32 29 22 18
28 28 30 31 34 39 39 32 23 19 19 20 21 23 25 26 25 24 24 24 24 25 25 26 27 25 24 24 25 25 27 29 30 30 29 29 30 33 35 30 23 22
Wind_Direction
227 229 231 232 233 236 238 240 242 243 244 243 243 244 247 250 251 252 251 244 238 237 239 244 250 256 260 263 266 265 264 265 266 269 272 276 281 285 289 292 294 295
226 228 228 229 229 230 232 233 235 236 236 236 236 238 242 244 245 246 243 236 232 233 237 242 248 253 257 259 262 262 262 264 265 266 268 269 273 277 281 286 289 291
224 225 225 225 225 226 228 229 229 230 229 229 230 233 236 239 241 241 236 229 229 231 236 243 248 251 254 256 260 262 264 266 266 266 267 267 268 271 275 280 284 287
222 221 222 223 222 223 225 226 226 227 225 224 226 229 232 234 236 235 231 225 222 225 233 240 243 244 247 249 256 263 266 268 268 266 268 269 268 270 272 275 280 284
220 219 220 220 219 220 222 223 225 225 223 223 226 228 229 229 231 231 225 217 214 218 223 223 223 225 232 242 257 270 277 281 278 272 270 270 269 271 273 275 278 281
221 220 219 218 217 218 221 223 224 223 222 224 226 229 229 228 229 227 219 213 214 216 212 212 219 227 236 248 259 269 279 287 288 283 279 277 272 270 271 274 277 278
224 222 222 220 218 218 221 223 223 220 219 223 226 229 229 228 230 224 215 214 218 218 217 221 229 235 243 253 262 267 271 278 284 289 293 293 283 273 269 272 275 277
222 222 222 222 220 218 220 222 220 217 218 222 226 229 231 231 230 222 217 220 223 225 227 232 237 243 249 256 264 268 271 275 280 285 291 296 292 281 273 271 272 275
220 220 221 221 221 219 220 221 217 214 217 223 228 232 234 233 228 223 223 226 228 231 234 240 247 252 254 257 263 268 272 275 278 280 283 289 293 289 280 273 272 274
219 219 219 219 219 218 218 218 215 213 217 222 228 233 235 233 228 226 228 231 234 238 243 250 256 259 260 261 263 267 272 276 278 278 278 283 289 290 284 276 272 274
220 219 218 216 216 216 215 214 212 211 213 217 224 230 232 232 230 229 233 238 243 249 253 258 263 265 265 266 268 271 274 277 277 275 274 278 282 283 280 275 272 274
220 219 218 214 215 216 213 210 210 208 206 212 224 230 231 231 233 235 240 246 251 255 258 262 266 269 270 272 275 275 275 276 276 274 273 274 276 276 274 273 272 274
221 219 217 216 216 217 213 209 209 206 202 209 226 232 232 232 233 238 245 251 255 257 259 264 268 270 273 275 277 277 277 279 280 278 275 274 273 271 270 271 272 273
216 213 217 221 223 222 216 210 209 205 202 215 234 234 227 222 222 233 243 249 253 255 259 265 268 270 274 276 277 279 280 283 284 281 278 275 271 269 268 269 270 271
205 205 214 223 226 226 219 212 209 205 205 224 244 234 220 216 218 230 239 244 250 255 260 265 268 271 276 278 278 280 281 283 284 281 278 274 270 269 268 267 269 272
208 205 210 215 220 221 217 213 209 206 210 230 246 230 216 217 222 229 235 241 248 254 260 264 268 271 275 277 277 277 277 277 277 276 273 270 267 265 265 266 270 275
212 209 211 213 215 216 215 212 208 207 216 236 245 229 220 222 227 231 235 241 247 254 260 264 268 271 272 274 273 271 271 271 272 272 268 264 262 261 264 269 274 279
212 215 214 212 215 218 216 211 207 210 222 234 230 222 224 228 231 234 237 242 246 253 260 264 269 272 271 271 270 267 265 266 269 269 265 263 262 262 266 271 276 281
216 217 211 207 215 222 219 212 211 215 226 237 230 223 227 232 235 238 241 243 247 253 260 266 271 273 272 269 268 264 261 260 263 264 264 264 264 265 267 270 274 280
217 215 211 207 211 216 214 213 216 220 229 242 240 230 230 234 239 242 244 246 250 255 261 268 272 273 273 270 268 264 259 258 259 260 262 264 265 266 268 271 274 279
222 219 217 212 208 207 208 211 217 222 231 243 242 233 232 238 243 247 250 252 256 260 264 270 273 275 274 271 269 266 260 257 258 259 260 261 264 267 268 271 274 278
229 226 223 218 211 206 205 208 216 225 235 243 242 237 237 243 247 250 253 256 260 263 267 272 276 277 275 273 273 271 266 263 263 263 262 261 262 265 268 272 274 274
233 230 223 217 213 208 205 209 218 229 236 239 241 240 242 246 250 253 257 261 264 267 270 274 278 280 279 277 276 275 273 272 270 268 268 267 266 266 269 272 270 267
230 226 214 211 212 209 207 212 221 228 232 236 242 245 245 248 252 257 262 265 268 272 276 278 279 279 280 280 279 277 276 275 275 274 272 271 271 271 269 268 263 259
228 218 208 208 209 208 210 216 223 228 233 240 248 250 250 251 255 261 267 270 272 276 280 280 281 282 283 282 282 281 279 278 278 277 276 276 276 273 271 270 266 266
227 213 206 207 208 207 210 215 220 229 238 247 255 255 251 252 256 264 272 278 280 283 284 284 286 288 289 287 285 284 282 279 276 276 279 282 280 279 280 279 272 273
Height
1539 1540 1541 1543 1544 1545 1546 1547 1548 1548 1549 1550 1550 1550 1550 1551 1551 1551 1552 1552 1553 1553 1553 1554 1554 1554 1554 1554 1554 1554 1554 1554 1554 1554 1554 1553 1553 1553 1553 1552 1552 1551
1537 1538 1539 1540 1541 1543 1544 1545 1546 1547 1548 1548 1548 1549 1549 1549 1550 1550 1551 1551 1551 1552 1552 1552 1552 1552 1553 1553 1553 1553 1553 1553 1553 1553 1552 1552 1552 1552 1552 1552 1551 1551
1534 1535 1537 1538 1539 1540 1542 1543 1544 1545 1546 1547 1547 1547 1547 1548 1548 1548 1549 1549 1550 1550 1551 1551 1551 1551 1551 1551 1551 1551 1551 1551 1551 1551 1551 1551 1551 1551 1551 1551 1550 1550
1531 1533 1534 1536 1537 1538 1540 1541 1542 1543 1544 1545 1545 1545 1546 1546 1547 1547 1547 1547 1548 1549 1549 1549 1549 1549 1549 1549 1549 1549 1549 1550 1550 1549 1549 1549 1549 1549 1550 1550 1549 1549
1528 1530 1531 1533 1535 1536 1538 1539 1541 1542 1543 1543 1544 1544 1544 1545 1545 1545 1546 1546 1546 1547 1547 1547 1548 1548 1548 1548 1548 1548 1548 1548 1548 1548 1548 1548 1548 1548 1548 1548 1548 1548
1526 1527 1529 1531 1533 1534 1536 1538 1540 1541 1541 1542 1542 1542 1543 1543 1544 1544 1544 1544 1545 1545 1545 1546 1546 1546 1546 1546 1546 1546 1546 1547 1547 1547 1546 1546 1546 1547 1547 1546 1546 1546
1524 1526 1528 1530 1531 1533 1535 1537 1538 1539 1540 1540 1541 1541 1542 1542 1542 1542 1542 1543 1543 1543 1543 1544 1544 1544 1544 1544 1544 1544 1545 1545 1545 1545 1545 1545 1545 1545 1545 1545 1545 1544
1520 1523 1526 1528 1530 1531 1533 1535 1536 1537 1538 1538 1539 1540 1540 1541 1541 1541 1541 1541 1541 1541 1542 1542 1542 1542 1543 1542 1542 1542 1542 1543 1543 1543 1543 1543 1543 1543 1543 1543 1543 1542
1516 1519 1522 1525 1527 1529 1531 1532 1534 1535 1536 1536 1537 1538 1539 1539 1540 1540 1540 1540 1540 1540 1540 1540 1541 1541 1541 1541 1541 1541 1540 1540 1541 1541 1541 1541 1541 1541 1541 1541 1540 1540
1513 1516 1518 1520 1523 1525 1528 1530 1531 1532 1533 1534 1535 1536 1537 1537 1538 1539 1539 1539 1539 1539 1539 1539 1539 1539 1539 1539 1539 1539 1539 1538 1539 1539 1539 1539 1539 1539 1539 1538 1538 1538
1509 1511 1513 1516 1519 1522 1525 1527 1529 1530 1531 1532 1533 1534 1534 1535 1536 1537 1537 1537 1537 1538 1538 1537 1538 1537 1537 1538 1538 1537 1537 1537 1536 1536 1536 1536 1536 1536 1536 1536 1536 1536
1505 1507 1509 1513 1518 1521 1524 1526 1527 1528 1529 1530 1531 1531 1532 1533 1534 1535 1535 1535 1536 1536 1536 1536 1535 1535 1535 1535 1536 1535 1535 1535 1534 1534 1534 1533 1534 1534 1534 1534 1534 1534
1501 1505 1511 1517 1521 1523 1524 1525 1526 1527 1528 1528 1529 1530 1530 1531 1532 1533 1533 1533 1534 1534 1534 1534 1533 1533 1533 1533 1533 1533 1533 1532 1532 1531 1531 1531 1531 1531 1531 1531 1531 1531
1499 1509 1519 1523 1524 1524 1524 1524 1524 1525 1526 1527 1527 1527 1528 1529 1529 1530 1531 1531 1532 1532 1532 1532 1531 1531 1531 1531 1531 1531 1531 1530 1529 1529 1529 1528 1528 1528 1529 1529 1529 1529
1501 1514 1523 1523 1523 1522 1522 1522 1523 1523 1524 1525 1525 1525 1525 1526 1526 1527 1528 1529 1529 1530 1530 1530 1529 1529 1529 1529 1529 1529 1528 1527 1527 1527 1526 1526 1526 1526 1526 1526 1526 1526
1505 1514 1517 1516 1517 1518 1519 1521 1522 1522 1523 1523 1523 1522 1523 1524 1524 1525 1525 1526 1527 1527 1528 1527 1527 1527 1527 1527 1527 1526 1526 1525 1525 1524 1524 1524 1523 1523 1524 1524 1524 1524
1502 1508 1509 1510 1513 1514 1517 1519 1519 1519 1520 1520 1520 1521 1522 1522 1523 1523 1523 1523 1524 1524 1525 1525 1525 1525 1525 1525 1524 1524 1523 1523 1522 1522 1522 1521 1521 1521 1521 1521 1521 1521
1495 1500 1503 1508 1511 1512 1514 1516 1516 1516 1516 1517 1517 1518 1520 1520 1521 1521 1520 1521 1521 1521 1521 1522 1522 1522 1522 1522 1522 1521 1521 1520 1520 1519 1519 1519 1518 1518 1518 1519 1519 1519
1493 1498 1502 1505 1507 1509 1513 1515 1514 1513 1513 1514 1514 1516 1517 1518 1518 1518 1518 1518 1518 1518 1518 1519 1519 1519 1519 1519 1519 1518 1518 1517 1517 1516 1516 1516 1516 1515 1516 1516 1516 1516
1490 1494 1496 1498 1500 1504 1510 1512 1511 1510 1511 1512 1512 1513 1514 1515 1516 1516 1515 1515 1515 1515 1516 1516 1516 1516 1516 1516 1516 1515 1516 1515 1514 1514 1513 1513 1513 1513 1513 1513 1513 1513
1484 1487 1489 1491 1494 1497 1501 1504 1506 1507 1508 1509 1510 1510 1512 1512 1513 1513 1513 1513 1513 1513 1513 1513 1513 1513 1513 1513 1513 1513 1513 1512 1511 1511 1510 1510 1509 1509 1510 1510 1510 1511
1479 1481 1484 1488 1490 1493 1495 1498 1501 1503 1504 1505 1506 1508 1509 1510 1510 1510 1510 1510 1511 1511 1511 1510 1510 1511 1511 1510 1510 1510 1510 1509 1508 1507 1506 1506 1506 1506 1506 1507 1508 1508
1474 1477 1481 1485 1489 1491 1493 1496 1498 1499 1500 1501 1503 1504 1506 1507 1507 1508 1508 1508 1508 1509 1509 1508 1508 1509 1508 1508 1508 1507 1507 1506 1505 1504 1503 1503 1502 1503 1504 1504 1504 1505
1471 1475 1479 1483 1488 1490 1492 1494 1496 1497 1497 1498 1499 1501 1503 1504 1505 1505 1505 1505 1505 1506 1506 1505 1505 1506 1506 1505 1505 1504 1504 1503 1502 1501 1500 1500 1500 1501 1500 1499 1499 1501
1469 1471 1475 1478 1483 1486 1488 1491 1493 1494 1495 1496 1497 1499 1500 1502 1502 1502 1502 1502 1502 1502 1502 1501 1501 1502 1502 1502 1501 1501 1500 1499 1498 1497 1497 1497 1498 1497 1495 1495 1498 1499
1466 1469 1471 1474 1478 1482 1486 1490 1491 1491 1492 1493 1494 1496 1498 1498 1499 1499 1499 1499 1499 1498 1498 1498 1498 1498 1498 1498 1497 1497 1496 1494 1493 1493 1494 1494 1493 1491 1490 1493 1496 1497